FW0069 Weather Reports


Display with metric or nautical units.
time (UTC)temp
F
wind
direction
speed
MPH
gust
MPH
rain 1hr
in
rain 24hr
in
rain mn
in
humidity
%
barometer
mb
20260509184028 94 91 6.0 9.0 0.00 0.00 0.00 9 1013.2
20260509183526 94 178 2.0 9.0 0.00 0.00 0.00 9 1013.3
20260509183026 95 360 6.0 7.0 0.00 0.00 0.00 9 1013.4
20260509182527 94 360 3.0 7.0 0.00 0.00 0.00 10 1013.3
20260509182026 94 360 2.0 7.0 0.00 0.00 0.00 9 1013.4
20260509181526 94 360 5.0 7.0 0.00 0.00 0.00 9 1013.4
20260509180526 93 61 2.0 6.0 0.00 0.00 0.00 10 1013.3
20260509180026 93 91 2.0 7.0 0.00 0.00 0.00 9 1013.2
20260509175526 93 71 2.0 7.0 0.00 0.00 0.00 9 1013.5
20260509175026 92 95 1.0 6.0 0.00 0.00 0.00 9 1013.5
20260509174027 92 102 0.0 7.0 0.00 0.00 0.00 9 1013.5
20260509173526 92 360 3.0 7.0 0.00 0.00 0.00 9 1013.6
20260509173026 92 63 7.0 7.0 0.00 0.00 0.00 10 1013.6
20260509172526 92 86 3.0 5.0 0.00 0.00 0.00 9 1013.5
20260509172026 92 26 0.0 7.0 0.00 0.00 0.00 10 1013.5
20260509171026 91 16 5.0 5.0 0.00 0.00 0.00 9 1013.5
20260509170526 91 54 3.0 5.0 0.00 0.00 0.00 10 1013.4
20260509170026 91 50 5.0 8.0 0.00 0.00 0.00 10 1013.5
20260509165526 91 51 3.0 8.0 0.00 0.00 0.00 10 1013.6
20260509165028 90 350 4.0 7.0 0.00 0.00 0.00 10 1013.4
20260509164526 91 21 4.0 8.0 0.00 0.00 0.00 10 1013.5
20260509164026 90 37 3.0 8.0 0.00 0.00 0.00 10 1013.4
20260509163526 89 9 5.0 8.0 0.00 0.00 0.00 10 1013.4
20260509162526 89 304 4.0 8.0 0.00 0.00 0.00 10 1013.4
20260509162026 88 360 5.0 10.0 0.00 0.00 0.00 10 1013.2
20260509161526 88 360 5.0 12.0 0.00 0.00 0.00 10 1013.3
20260509161026 88 280 1.0 12.0 0.00 0.00 0.00 10 1013.3
20260509160526 87 360 8.0 11.0 0.00 0.00 0.00 10 1013.2
20260509160026 87 360 2.0 12.0 0.00 0.00 0.00 10 1013.2
20260509155526 86 310 5.0 12.0 0.00 0.00 0.00 11 1013.3
20260509154526 86 360 3.0 12.0 0.00 0.00 0.00 11 1013.2
20260509152526 85 360 10.0 12.0 0.00 0.00 0.00 12 1013.3
20260509152026 85 289 8.0 12.0 0.00 0.00 0.00 11 1013.4
20260509151526 85 321 5.0 10.0 0.00 0.00 0.00 11 1013.4
20260509150526 84 360 8.0 10.0 0.00 0.00 0.00 13 1013.2
20260509150026 83 360 3.0 9.0 0.00 0.00 0.00 13 1013.3
20260509145525 82 360 3.0 9.0 0.00 0.00 0.00 13 1013.5
20260509145026 81 360 3.0 6.0 0.00 0.00 0.00 14 1013.4
20260509144526 81 360 2.0 6.0 0.00 0.00 0.00 13 1013.3
20260509144025 80 360 3.0 8.0 0.00 0.00 0.00 14 1013.3
20260509143526 81 242 5.0 8.0 0.00 0.00 0.00 13 1013.3
20260509143026 81 360 3.0 6.0 0.00 0.00 0.00 13 1013.2
20260509142526 80 360 4.0 6.0 0.00 0.00 0.00 14 1013.3
20260509142027 79 360 2.0 6.0 0.00 0.00 0.00 14 1013.2
20260509141526 79 360 2.0 6.0 0.00 0.00 0.00 14 1013.1
20260509141026 78 360 1.0 6.0 0.00 0.00 0.00 14 1013.1
20260509140526 76 360 3.0 8.0 0.00 0.00 0.00 14 1012.8
20260509140025 76 360 2.0 8.0 0.00 0.00 0.00 15 1012.8
20260509135526 75 360 3.0 8.0 0.00 0.00 0.00 14 1012.9
20260509135026 75 360 5.0 8.0 0.00 0.00 0.00 14 1012.9
20260509134525 75 360 6.0 7.0 0.00 0.00 0.00 14 1012.8
20260509134027 74 360 3.0 9.0 0.00 0.00 0.00 14 1012.5
20260509133526 74 360 1.0 11.0 0.00 0.00 0.00 14 1012.5
20260509133026 73 360 6.0 11.0 0.00 0.00 0.00 14 1012.3
20260509132525 73 360 6.0 8.0 0.00 0.00 0.00 14 1012.2
20260509132025 73 267 4.0 7.0 0.00 0.00 0.00 14 1012.2
20260509131525 72 360 7.0 7.0 0.00 0.00 0.00 14 1012.0
20260509131025 72 360 6.0 9.0 0.00 0.00 0.00 15 1012.0
20260509130526 72 360 4.0 9.0 0.00 0.00 0.00 15 1012.0
20260509130025 72 304 3.0 8.0 0.00 0.00 0.00 15 1012.0
20260509125525 71 360 5.0 8.0 0.00 0.00 0.00 16 1012.0
20260509125026 72 360 7.0 8.0 0.00 0.00 0.00 16 1011.9
20260509124526 72 360 4.0 6.0 0.00 0.00 0.00 16 1011.8
20260509124026 72 360 3.0 6.0 0.00 0.00 0.00 16 1011.7
20260509123526 72 360 4.0 8.0 0.00 0.00 0.00 16 1011.7
20260509123026 72 295 2.0 8.0 0.00 0.00 0.00 15 1011.6
20260509122526 73 360 3.0 8.0 0.00 0.00 0.00 15 1011.7
20260509122026 73 360 4.0 8.0 0.00 0.00 0.00 15 1011.7
20260509121025 74 360 5.0 7.0 0.00 0.00 0.00 15 1011.6
20260509120525 74 360 4.0 9.0 0.00 0.00 0.00 15 1011.4
20260509120025 74 360 5.0 9.0 0.00 0.00 0.00 15 1011.5
20260509115526 74 277 4.0 11.0 0.00 0.00 0.00 15 1011.5
20260509115025 74 360 8.0 11.0 0.00 0.00 0.00 15 1011.4
20260509114525 75 360 7.0 9.0 0.00 0.00 0.00 15 1011.4
20260509114026 75 360 6.0 11.0 0.00 0.00 0.00 15 1011.4
20260509113026 75 360 7.0 14.0 0.00 0.00 0.00 15 1011.5
20260509112526 75 360 7.0 14.0 0.00 0.00 0.00 15 1011.5
20260509112025 76 360 14.0 14.0 0.00 0.00 0.00 15 1011.6
20260509111525 75 360 8.0 13.0 0.00 0.00 0.00 15 1011.5
20260509111026 75 360 9.0 12.0 0.00 0.00 0.00 15 1011.4
20260509110526 75 360 3.0 14.0 0.00 0.00 0.00 15 1011.3
20260509110026 75 360 11.0 14.0 0.00 0.00 0.00 15 1011.4
20260509105526 75 360 14.0 14.0 0.00 0.00 0.00 15 1011.4
20260509105025 75 360 8.0 14.0 0.00 0.00 0.00 15 1011.4
20260509104525 75 360 7.0 13.0 0.00 0.00 0.00 14 1011.1
20260509104026 76 248 3.0 15.0 0.00 0.00 0.00 14 1011.3
20260509103526 76 360 12.0 15.0 0.00 0.00 0.00 14 1011.3
20260509103026 76 360 4.0 12.0 0.00 0.00 0.00 14 1011.3
20260509102526 76 294 4.0 12.0 0.00 0.00 0.00 14 1011.2
20260509102026 76 360 5.0 10.0 0.00 0.00 0.00 14 1011.3
20260509101525 76 360 6.0 8.0 0.00 0.00 0.00 15 1011.3
20260509101026 76 360 6.0 8.0 0.00 0.00 0.00 15 1011.4
20260509100026 76 246 4.0 9.0 0.00 0.00 0.00 15 1011.5
20260509095526 76 269 4.0 9.0 0.00 0.00 0.00 15 1011.5
20260509095026 76 360 4.0 9.0 0.00 0.00 0.00 15 1011.6
20260509094525 76 360 4.0 7.0 0.00 0.00 0.00 15 1011.4
20260509093525 76 267 4.0 7.0 0.00 0.00 0.00 15 1011.4
20260509093026 76 275 3.0 8.0 0.00 0.00 0.00 15 1011.4
20260509092525 76 360 5.0 8.0 0.00 0.00 0.00 15 1011.4
20260509092025 76 236 2.0 8.0 0.00 0.00 0.00 15 1011.5
20260509091525 76 282 2.0 8.0 0.00 0.00 0.00 15 1011.5
20260509091025 76 273 4.0 8.0 0.00 0.00 0.00 15 1011.4
20260509090525 77 360 4.0 8.0 0.00 0.00 0.00 15 1011.4
20260509090025 76 237 5.0 8.0 0.00 0.00 0.00 14 1011.3
20260509085525 76 280 5.0 7.0 0.00 0.00 0.00 15 1011.3
20260509085026 76 274 4.0 7.0 0.00 0.00 0.00 15 1011.3
20260509084526 76 285 4.0 7.0 0.00 0.00 0.00 15 1011.2
20260509084026 77 282 3.0 7.0 0.00 0.00 0.00 15 1011.2
20260509083525 77 360 3.0 7.0 0.00 0.00 0.00 15 1011.2
20260509082525 77 360 4.0 7.0 0.00 0.00 0.00 15 1011.3
20260509082026 77 360 3.0 8.0 0.00 0.00 0.00 15 1011.4
20260509081025 77 262 5.0 7.0 0.00 0.00 0.00 15 1011.4
20260509080525 77 360 3.0 8.0 0.00 0.00 0.00 14 1011.6
20260509080026 78 360 3.0 8.0 0.00 0.00 0.00 14 1011.5
20260509075025 78 360 6.0 7.0 0.00 0.00 0.00 14 1011.3
20260509074525 78 294 6.0 7.0 0.00 0.00 0.00 14 1011.3
20260509074025 78 280 3.0 8.0 0.00 0.00 0.00 14 1011.4
20260509073525 79 360 4.0 8.0 0.00 0.00 0.00 14 1011.6
20260509073025 79 360 6.0 10.0 0.00 0.00 0.00 14 1011.6
20260509072525 79 360 7.0 10.0 0.00 0.00 0.00 14 1011.6
20260509072025 80 360 4.0 8.0 0.00 0.00 0.00 14 1011.5
20260509071525 80 281 3.0 7.0 0.00 0.00 0.00 14 1011.5
20260509071025 80 360 5.0 8.0 0.00 0.00 0.00 14 1011.5
20260509070525 80 360 6.0 8.0 0.00 0.00 0.00 14 1011.6
20260509070025 80 360 3.0 7.0 0.00 0.00 0.00 14 1011.4
20260509065525 80 360 5.0 7.0 0.00 0.00 0.00 14 1011.3
20260509065025 80 360 4.0 6.0 0.00 0.00 0.00 14 1011.3
20260509064525 81 360 4.0 6.0 0.00 0.00 0.00 14 1011.2
20260509064025 81 360 4.0 5.0 0.00 0.00 0.00 14 1011.2
20260509063525 81 360 3.0 6.0 0.00 0.00 0.00 13 1011.3
20260509062526 82 360 2.0 3.0 0.00 0.00 0.00 13 1011.4
20260509062026 82 360 2.0 4.0 0.00 0.00 0.00 13 1011.3
20260509061525 83 360 3.0 4.0 0.00 0.00 0.00 13 1011.4
20260509061025 83 360 2.0 7.0 0.00 0.00 0.00 13 1011.4
20260509060525 83 360 2.0 7.0 0.00 0.00 0.00 13 1011.3
20260509060025 83 360 2.0 5.0 0.00 0.00 0.00 12 1011.4
20260509055025 84 360 1.0 5.0 0.00 0.00 0.00 12 1011.1
20260509054525 84 360 3.0 7.0 0.00 0.00 0.00 12 1011.1
20260509054026 84 360 3.0 7.0 0.00 0.00 0.00 12 1011.1
20260509053525 85 360 2.0 7.0 0.00 0.00 0.00 12 1011.2
20260509053025 85 360 2.0 7.0 0.00 0.00 0.00 12 1011.3
20260509052525 85 360 1.0 6.0 0.00 0.00 0.00 11 1011.3
20260509052025 85 360 2.0 7.0 0.00 0.00 0.00 11 1011.2
20260509051525 85 360 3.0 7.0 0.00 0.00 0.00 11 1011.2
20260509051025 85 360 3.0 6.0 0.00 0.00 0.00 11 1011.2
20260509050525 85 282 3.0 6.0 0.00 0.00 0.00 11 1011.1
20260509045525 86 360 1.0 6.0 0.00 0.00 0.00 11 1011.0
20260509045025 86 360 1.0 5.0 0.00 0.00 0.00 11 1011.0
20260509044525 86 360 2.0 5.0 0.00 0.00 0.00 11 1010.9
20260509044025 86 360 3.0 5.0 0.00 0.00 0.00 11 1010.9
20260509043525 86 360 2.0 5.0 0.00 0.00 0.00 11 1010.9
20260509042525 86 360 3.0 9.0 0.00 0.00 0.00 11 1010.8
20260509042025 85 360 6.0 6.0 0.00 0.00 0.00 11 1010.7
20260509041525 86 360 2.0 5.0 0.00 0.00 0.00 11 1010.7
20260509041025 86 360 1.0 4.0 0.00 0.00 0.00 11 1010.7
20260509040025 87 360 2.0 3.0 0.00 0.00 0.00 10 1010.7
20260509035525 87 360 1.0 3.0 0.00 0.00 0.00 10 1010.2
20260509035025 88 360 1.0 3.0 0.00 0.00 0.00 10 1010.2
20260509034526 88 360 2.0 2.0 0.00 0.00 0.00 9 1010.2
20260509034025 89 360 2.0 2.0 0.00 0.00 0.00 9 1010.2
20260509033525 89 360 2.0 2.0 0.00 0.00 0.00 9 1010.2
20260509033025 90 360 0.0 2.0 0.00 0.00 0.00 9 1010.1
20260509032525 90 261 1.0 2.0 0.00 0.00 0.00 9 1010.2
20260509032025 91 259 0.0 3.0 0.00 0.00 0.00 8 1010.2
20260509031525 91 259 1.0 5.0 0.00 0.00 0.00 8 1010.2
20260509030525 92 360 2.0 7.0 0.00 0.00 0.00 8 1010.1
20260509030026 92 360 3.0 7.0 0.00 0.00 0.00 8 1010.1
20260509025525 92 360 2.0 6.0 0.00 0.00 0.00 7 1009.9
20260509025024 93 360 3.0 7.0 0.00 0.00 0.00 7 1009.7
20260509024526 93 360 3.0 8.0 0.00 0.00 0.00 7 1009.7
20260509024025 93 360 6.0 8.0 0.00 0.00 0.00 7 1009.6
20260509023525 94 360 3.0 8.0 0.00 0.00 0.00 7 1009.7
20260509023025 94 360 3.0 8.0 0.00 0.00 0.00 7 1009.7
20260509022525 94 289 5.0 7.0 0.00 0.00 0.00 7 1009.9
20260509021526 95 360 2.0 11.0 0.00 0.00 0.00 7 1009.6
20260509021025 95 360 5.0 14.0 0.00 0.00 0.00 7 1009.5
20260509020025 95 306 4.0 10.0 0.00 0.00 0.00 7 1009.6
20260509015524 95 360 8.0 9.0 0.00 0.00 0.00 6 1009.3
20260509015025 95 360 5.0 7.0 0.00 0.00 0.00 7 1009.3
20260509014524 96 291 1.0 10.0 0.00 0.00 0.00 7 1009.2
20260509014025 96 360 4.0 10.0 0.00 0.00 0.00 6 1009.3
20260509012524 96 281 2.0 9.0 0.00 0.00 0.00 6 1009.3
20260509011524 97 304 3.0 9.0 0.00 0.00 0.00 6 1009.4
20260509011025 97 360 6.0 6.0 0.00 0.00 0.00 7 1009.6
20260509010024 97 306 1.0 9.0 0.00 0.00 0.00 6 1009.5
20260509005525 97 329 5.0 7.0 0.00 0.00 0.00 6 1009.4
20260509005024 97 360 2.0 7.0 0.00 0.00 0.00 6 1009.5
20260509004525 97 335 4.0 10.0 0.00 0.00 0.00 6 1009.6
20260509004024 97 360 4.0 10.0 0.00 0.00 0.00 6 1009.5
20260509003524 97 268 6.0 10.0 0.00 0.00 0.00 6 1009.5
20260509003025 97 228 5.0 10.0 0.00 0.00 0.00 6 1009.6
20260509002524 97 239 4.0 7.0 0.00 0.00 0.00 6 1009.6
20260509002024 97 31 1.0 10.0 0.00 0.00 0.00 6 1009.7
20260509001525 98 252 1.0 10.0 0.00 0.00 0.00 6 1009.7
20260509000525 98 360 1.0 10.0 0.00 0.00 0.00 6 1009.8
20260509000025 98 292 3.0 13.0 0.00 0.00 0.00 6 1009.9
20260508235525 98 360 3.0 13.0 0.00 0.00 0.00 6 1009.8
20260508235025 98 327 4.0 11.0 0.00 0.00 0.00 6 1009.7
20260508234525 98 360 7.0 10.0 0.00 0.00 0.00 6 1009.8
20260508233525 98 302 2.0 11.0 0.00 0.00 0.00 6 1009.8
20260508233024 98 286 6.0 12.0 0.00 0.00 0.00 6 1009.9
20260508232525 98 345 4.0 12.0 0.00 0.00 0.00 6 1009.9
20260508232024 98 360 6.0 14.0 0.00 0.00 0.00 7 1009.9
20260508231024 98 261 2.0 11.0 0.00 0.00 0.00 6 1010.0
20260508230525 98 360 10.0 10.0 0.00 0.00 0.00 6 1010.1
20260508230024 97 360 3.0 14.0 0.00 0.00 0.00 7 1010.0
20260508225525 97 253 0.0 16.0 0.00 0.00 0.00 6 1010.0
20260508225025 98 306 7.0 16.0 0.00 0.00 0.00 7 1010.3
20260508224524 98 297 2.0 13.0 0.00 0.00 0.00 7 1010.3
20260508224025 97 44 3.0 7.0 0.00 0.00 0.00 7 1010.3
20260508223525 97 44 4.0 8.0 0.00 0.00 0.00 6 1010.2
20260508223025 98 360 4.0 14.0 0.00 0.00 0.00 7 1010.5
20260508222524 98 323 5.0 14.0 0.00 0.00 0.00 6 1010.4
20260508222024 98 360 5.0 11.0 0.00 0.00 0.00 7 1010.6
20260508221525 98 229 2.0 13.0 0.00 0.00 0.00 7 1010.8
20260508221025 99 360 8.0 13.0 0.00 0.00 0.00 7 1010.9
20260508220524 98 282 2.0 9.0 0.00 0.00 0.00 7 1010.9
20260508220025 98 27 1.0 9.0 0.00 0.00 0.00 7 1011.0
20260508215524 98 216 4.0 9.0 0.00 0.00 0.00 7 1011.1
20260508215025 98 360 5.0 14.0 0.00 0.00 0.00 7 1011.4
20260508214524 98 194 2.0 17.0 0.00 0.00 0.00 7 1011.3
20260508214024 99 360 9.0 17.0 0.00 0.00 0.00 7 1011.5
20260508213524 99 240 4.0 14.0 0.00 0.00 0.00 7 1011.5
20260508212524 98 360 5.0 13.0 0.00 0.00 0.00 7 1011.4
20260508212024 98 280 4.0 10.0 0.00 0.00 0.00 7 1011.6
20260508211524 99 329 4.0 10.0 0.00 0.00 0.00 7 1011.6
20260508211024 98 227 6.0 10.0 0.00 0.00 0.00 7 1011.7
20260508210524 98 360 3.0 11.0 0.00 0.00 0.00 8 1011.6
20260508210025 98 360 10.0 12.0 0.00 0.00 0.00 8 1011.9
20260508205024 98 360 5.0 13.0 0.00 0.00 0.00 7 1012.2
20260508204024 98 283 7.0 7.0 0.00 0.00 0.00 8 1012.5
20260508203524 97 160 3.0 10.0 0.00 0.00 0.00 8 1012.2
20260508203024 97 360 2.0 15.0 0.00 0.00 0.00 8 1012.4
20260508202524 98 360 9.0 16.0 0.00 0.00 0.00 8 1012.9
20260508202024 98 281 7.0 16.0 0.00 0.00 0.00 7 1012.6
20260508201524 97 28 4.0 6.0 0.00 0.00 0.00 9 1012.7
20260508195524 97 64 3.0 9.0 0.00 0.00 0.00 8 1012.6
20260508195024 97 175 1.0 9.0 0.00 0.00 0.00 9 1012.8
20260508194525 95 108 5.0 7.0 0.00 0.00 0.00 9 1012.9
20260508194025 95 113 1.0 6.0 0.00 0.00 0.00 9 1013.0
20260508193524 95 105 4.0 8.0 0.00 0.00 0.00 9 1013.1
20260508193024 95 308 4.0 10.0 0.00 0.00 0.00 9 1013.2
20260508192024 96 360 5.0 8.0 0.00 0.00 0.00 10 1013.4
20260508191524 95 360 3.0 9.0 0.00 0.00 0.00 10 1013.3
20260508191024 95 56 3.0 9.0 0.00 0.00 0.00 10 1013.4
20260508190524 95 37 3.0 8.0 0.00 0.00 0.00 10 1013.5
20260508190024 94 68 5.0 9.0 0.00 0.00 0.00 9 1013.5
20260508185524 94 360 5.0 10.0 0.00 0.00 0.00 9 1013.5
20260508185024 93 101 7.0 10.0 0.00 0.00 0.00 10 1013.5
20260508184524 94 140 1.0 8.0 0.00 0.00 0.00 10 1013.8